Location: Moscow
(55.7500°N, 37.5830°E)
Time: 06:36:22
(UTC+03:00)

Envisat - Pass Details

Date: 28 October 2021
Orbit: 764 x 766 km, 98.2° (Epoch: 28 November)

Event Time Altitude Azimuth Distance (km) Brightness Sun altitude
Rises 17:48:15 0° 205° (SSW) 3,225 6.8 -7.5°
Reaches altitude 10° 17:51:02 10° 220° (SW) 2,304 6.3 -7.9°
Maximum altitude 17:54:58 22° 271° (W) 1,622 5.8 -8.4°
Drops below altitude 10° 17:58:56 10° 322° (NW) 2,316 5.9 -9.0°
Sets 18:01:45 0° 338° (NNW) 3,248 6.4 -9.4°
